COSMIC

导读

COSMIC(NORAD编号66658)是隶属于福尔摩沙卫星七号(FORMOSAT-7)星座的气象观测卫星,由中国台湾地区“国家太空中心”与美国国家海洋暨大气总署(NOAA)合作开发。该卫星于2019年6月25日发射升空,运行于约550公里高度的近极轨太阳同步轨道,主要任务是通过全球无线电掩星技术,获取大气温度、湿度与电离层电子密度等气象参数,为天气预报、气候研究和空间天气监测提供关键数据。作为COSMIC系列的第二代卫星,它延续了第一代的科研成果,大幅提升了观测数据的数量与精度,支撑全球气象预报模型的改进,对极端天气预警和气候变化研究具有重要价值。

基本信息
目录编号:
66658
目录名称:
COSMIC
国际标识:
2025-274J
轨道中心:
EARTH
卫星名称:
COSMIC
卫星全名:
COSMIC
卫星状态:
在轨 (已飞行282 天)
发射日期:
2025-11-26 UTC
国别 :
韩国 (KR)
星等 :
--
轨道信息
数据来源 国际轨道数据
星历时间: 2026-09-04T20:46:19+0800
8小时前
查看轨道信息
半长轴: 6961.379km
偏心率: 0.0013856
轨道倾角: 97.746°
近地点辐角 109.254°
升交点赤经 175.935°
平近点角 251.018°
近地点: 573.596km
远地点: 592.888km
周期: 96.339分钟
每日圈数: 14.947201
详细信息
使用方式:
暂无
2D轨道图
3D轨道图
轨道高度分析图
轨道倾角分析图
轨道综合分析图
查看轨道综合分析图
交会数据列表
事件ID 空间交会对象 最接近时刻(TCA) 交会距离 交会风险概率(CRP) 交会风险指数(CRI) 操作
CDM_260906-083806-665806-710122
COSMIC (66658)
2026-09-06T
08:38:08+0000
1.731 km
极远距离
3.702941E-6 低风险 0.46
CDM_260907-052006-479606-665821
COSMIC (66658)
2026-09-07T
05:20:19+0000
1.819 km
极远距离
3.613133E-6 低风险 0.46
CDM_260905-001905-564706-665824
COSMIC (66658)
2026-09-05T
00:19:39+0000
2.546 km
极远距离
1.38533E-6 低风险 0.38
CDM_260830-085806-458506-665822
COSMIC (66658)
2026-08-30T
08:58:39+0000
2.934 km
极远距离
1.38511E-6 低风险 0.38
CDM_260905-025006-665806-990323
COSMIC (66658)
BALKAN-3 (69903)
2026-09-05T
02:50:16+0000
2.611 km
极远距离
7.487919E-7 极低风险 0.32